Location: Newark
(35.9031°N, 139.7175°E)
Time: 04:56:53
(UTC+00:00)

deb Explorer IX - Visible Passes

Search period start: 28 May 2020 00:00
Search period end: 07 June 2020 00:00
Orbit: 546 x 1101 km, 38.8° (Epoch: 27 May)

Date Brightness Start Highest point End Pass type
(mag) Time Alt. Az. Time Alt. Az. Time Alt. Az.
28 May ? 11:48:59 10° W 11:53:49 65° N 11:58:33 15° ENE visible
28 May ? 13:35:48 10° WNW 13:39:51 53° WNW 13:39:51 53° WNW visible
29 May ? 11:26:33 10° W 11:31:15 64° N 11:36:45 10° ENE visible
29 May ? 13:13:19 10° WNW 13:18:02 71° NW 13:18:02 71° NW visible
30 May ? 11:04:06 10° W 11:08:40 63° N 11:14:01 10° ENE visible
30 May ? 12:50:52 10° WNW 12:55:57 78° NNE 12:56:14 76° NE visible
31 May ? 10:41:40 10° W 10:46:06 63° N 10:51:16 10° ENE visible
31 May ? 12:28:23 10° WNW 12:33:20 79° NNE 12:34:24 58° E visible
31 May ? 14:15:10 10° W 14:15:41 13° W 14:15:41 13° W visible
01 Jun ? 10:19:12 10° W 10:23:33 62° N 10:28:32 10° ENE visible
01 Jun ? 12:05:56 10° WNW 12:10:44 79° NNE 12:12:34 42° E visible
01 Jun ? 13:52:41 10° W 13:53:52 17° W 13:53:52 17° W visible
02 Jun ? 11:43:28 10° WNW 11:48:08 79° NNE 11:50:45 30° E visible
02 Jun ? 13:30:13 10° W 13:32:03 22° W 13:32:03 22° W visible
03 Jun ? 11:21:01 10° WNW 11:25:33 79° NNE 11:28:58 21° E visible
03 Jun ? 13:07:45 10° W 13:10:16 27° WSW 13:10:16 27° WSW visible
04 Jun ? 10:58:32 10° WNW 11:02:58 79° NNE 11:07:12 15° E visible
04 Jun ? 12:45:18 10° W 12:48:30 33° WSW 12:48:30 33° WSW visible
05 Jun ? 10:36:04 10° WNW 10:40:24 80° NNE 10:45:21 10° ESE visible
05 Jun ? 12:22:50 10° W 12:26:46 36° SW 12:26:46 36° SW visible
06 Jun ? 12:00:23 10° W 12:04:34 35° SSW 12:05:04 35° SSW visible
